This is the latest recevied weather packets stored in our database for station/object OE3PDB-3. If no packets are shown the sender has not sent any weather packets the latest 10 day(s).
| Time | Temp. | Humidity | Pressure | Rain* | Wind** | Luminosity | Snow |
|---|---|---|---|---|---|---|---|
| 1787589030 | 25.56° C | 39% | 1018 hPa | 0 mm | - | - | - |
| 1787588430 | 25.56° C | 38% | 1018 hPa | 0 mm | - | - | - |
| 1787587830 | 26.11° C | 37% | 1018.1 hPa | 0 mm | - | - | - |
| 1787587230 | 26.67° C | 37% | 1018.2 hPa | 0 mm | - | - | - |
| 1787586630 | 26.67° C | 36% | 1018.4 hPa | 0 mm | - | - | - |
| 1787586030 | 27.22° C | 36% | 1018.6 hPa | 0 mm | - | - | - |
| 1787585430 | 27.78° C | 35% | 1018.7 hPa | 0 mm | - | - | - |
| 1787584830 | 27.78° C | 35% | 1018.8 hPa | 0 mm | - | - | - |
| 1787584231 | 27.78° C | 35% | 1018.9 hPa | 0 mm | - | - | - |
| 1787583631 | 27.78° C | 35% | 1018.9 hPa | 0 mm | - | - | - |
| 1787583031 | 27.78° C | 35% | 1018.9 hPa | 0 mm | - | - | - |
| 1787582431 | 28.89° C | 34% | 1019.1 hPa | 0 mm | - | - | - |
| 1787581831 | 28.89° C | 34% | 1019 hPa | 0 mm | - | - | - |
| 1787581231 | 29.44° C | 34% | 1019 hPa | 0 mm | - | - | - |
| 1787580631 | 29.44° C | 34% | 1019 hPa | 0 mm | - | - | - |
| 1787580031 | 28.89° C | 34% | 1019 hPa | 0 mm | - | - | - |
| 1787579431 | 28.33° C | 34% | 1019 hPa | 0 mm | - | - | - |
| 1787578831 | 28.33° C | 34% | 1019.2 hPa | 0 mm | - | - | - |
| 1787578231 | 28.33° C | 35% | 1019.2 hPa | 0 mm | - | - | - |
| 1787577631 | 27.78° C | 36% | 1019.4 hPa | 0 mm | - | - | - |
| 1787577031 | 27.22° C | 36% | 1019.7 hPa | 0 mm | - | - | - |
| 1787576431 | 27.78° C | 36% | 1019.7 hPa | 0 mm | - | - | - |
| 1787575831 | 27.22° C | 36% | 1019.9 hPa | 0 mm | - | - | - |
| 1787575231 | 26.67° C | 37% | 1020 hPa | 0 mm | - | - | - |
| 1787574631 | 26.67° C | 37% | 1020 hPa | 0 mm | - | - | - |
* Rain latest hour (hover to see other rain measurements)
** Current wind speed in m/s (hover to see current wind gust speed)